Regional Weather Roundup
Issued by NWS Boston, MA

Current Version | Previous Version | Text Only | Print | Product List | Glossary Off
Versions: 1 2 3 4 5 6 7 8 9 10 11 12 13 14 15 16 17 18 19 20 21 22 23 24 25 26 27 28 29 30 31 32 33 34 35 36 37 38 39 40 41 42 43 44 45 46 47 48 49 50
377 ASUS41 KBOX 211510 RWRBOX REGIONAL WEATHER ROUNDUP NATIONAL WEATHER SERVICE TAUNTON MA 1000 AM EST WED FEB 21 2018 NOTE: "FAIR" INDICATES FEW OR NO CLOUDS BELOW 12,000 FEET WITH NO SIGNIFICANT WEATHER AND/OR OBSTRUCTIONS TO VISIBILITY. MAZALL-211600- EASTERN MASSACHUSETTS CITY SKY/WX TMP DP RH WIND PRES REMARKS BOSTON PTSUNNY 63 57 81 SW21G32 30.19F BEVERLY CLOUDY 62 57 83 SW12 30.18F LAWRENCE FAIR 64 56 75 SW13 30.19F BEDFORD PTSUNNY 63 56 78 SW14 30.19F BLUE HILL N/A 60 57 89 SW15G28 30.21S NORWOOD CLOUDY 64 58 80 SW13G21 30.22S MARSHFIELD PTSUNNY 63 57 82 SW18G25 30.22S PLYMOUTH CLOUDY 59 55 87 SW17G25 30.26S TAUNTON CLOUDY 58 54 86 SW8 30.25S NEW BEDFORD CLOUDY 53 53 100 SW12 30.27S $$ MAZALL-211600- CAPE COD AND THE ISLANDS CITY SKY/WX TMP DP RH WIND PRES REMARKS FALMOUTH FOG 50 50 100 SW15G25 30.30 VSB<1/4 HYANNIS FOG 54 54 100 SW20G30 30.26S VSB 1/4 CHATHAM FOG 46 46 100 SW9G20 30.29S VSB 1/4 PROVINCETOWN FOG 46 45 96 SW20G29 30.23F VSB 1/2 NANTUCKET FOG 47 47 100 SW16 30.33S VSB 1/4 MARTHAS VNYRD FOG 50 48 93 SW14G23 30.31S VSB 1/4 $$ MAZALL-211600- CENTRAL AND WESTERN MASSACHUSETTS CITY SKY/WX TMP DP RH WIND PRES REMARKS WORCESTER CLOUDY 56 55 97 SW13 30.23S FITCHBURG FAIR 66 57 72 W12G17 30.20F ORANGE CLOUDY 56 56 100 S8 30.22S SPRINGFIELD PTSUNNY 62 56 82 S10 30.21F WESTFIELD FAIR 64 57 78 SW10 30.21F NORTH ADAMS FAIR 61 54 77 CALM 30.18F PITTSFIELD FAIR 60 54 80 VRB3 30.20F $$ RIZALL-211600- RHODE ISLAND CITY SKY/WX TMP DP RH WIND PRES REMARKS PROVIDENCE CLOUDY 60 57 89 SW14G25 30.27S NEWPORT FOG 48 48 100 SW10G18 30.28F VSB 1/4 BLOCK ISLAND LGT RAIN 45 45 100 SW18 30.31 VSB 1/4 SMITHFIELD CLOUDY 59 56 89 VRB7G18 30.25F WESTERLY FOG 49 49 100 SW6 30.30F VSB<1/4 $$ CTZALL-211600- CONNECTICUT CITY SKY/WX TMP DP RH WIND PRES REMARKS BRADLEY INTL PTSUNNY 64 57 78 SW14 30.23F HARTFORD CLOUDY 61 57 87 S10 30.25F BRIDGEPORT FOG 50 50 100 SW5 30.29S VSB 1/2 DANBURY CLOUDY 62 57 83 SW10 30.28S GROTON FOG 49 49 100 S3 30.29F VSB<1/4 NEW HAVEN FOG 48 48 100 SW6 30.29S VSB 1/4 CHESTER FOG 55 55 100 SW9 30.28S VSB<1/4 MERIDEN CLOUDY 53 53 100 S10 30.28S FOG WILLIMANTIC CLOUDY 62 56 80 SW9 30.26F OXFORD CLOUDY 58 56 93 SW8 30.28S FOG $$ MEZ002-015-021-024-NHZ003-005-008-011-012-014-VTZ005-008-211600- NORTHERN NEW ENGLAND CITY SKY/WX TMP DP RH WIND PRES REMARKS PORTLAND ME FAIR 45 45 100 S9 30.12F BANGOR ME FOG 39 39 100 S8 30.10F VSB 1/8 CONCORD NH FAIR 50 48 93 CALM 30.17F MANCHESTER NH PTSUNNY 59 52 77 S7 30.16F NASHUA NH MOSUNNY 63 57 82 VRB6 30.18F PORTSMOUTH NH PTSUNNY 51 51 100 SW6 30.14 JAFFREY NH CLOUDY 55 55 100 VRB6 30.20S FOG KEENE NH CLOUDY 43 43 100 CALM 30.20F FOG BURLINGTON VT FAIR 65 53 65 S14G24 30.03F MT. WASHINGTON FOG 45 45 100 W74G81 N/A VSB 0 WCI 30 $$ NYZ052-076-211600- EASTERN NEW YORK CITY SKY/WX TMP DP RH WIND PRES REMARKS ALBANY PTSUNNY 59 54 83 S13G21 30.16F NEW YORK CITY PTSUNNY 64 58 80 SW15 30.29S $$ ANZALL-211600- MARINE OBSERVATIONS STATION/POSITION TIME TEMP WIND PRES VSBY WAVE AIR SEA DIR/SP/G HT/PER (UTC) (F) (DEG/KT/KT) (MB) (MI) (FT/S) BOSTON BUOY 1450 49 40 220/ 12/ 14 1022.0F 3/10 BUZZARDS BAY 1400 44 220/ 18/ 20 1026.4F NANTUCKET SOUND 1450 43 39 240/ 16/ 19 1026.2R 2/ 4 MASS BAY-STELLWA 1404 45 39 1021.4F 4/11 ISLE OF SHOALS 1500 54 230/ 19/ 20 1020.8F S OF BLOCK IS 1443 39 N/A 6/ 6 $$ ......................KEY......................... SKY/WX - SKY CONDITION/PRESENT WEATHER TMP - TEMPERATURE IN FAHRENHEIT DWPT - DEWPOINT IN FAHRENHEIT RH - RELATIVE HUMIDITY IN PERCENT WIND - DIRECTION AND SPEED IN MPH PRES - MEAN SEA LEVEL PRESSURE IN INCHES OF HG WCI - WIND CHILL INDEX VSB - VISIBILITY IN MILES HX - HEAT INDEX TC - TEMPERATURE IN CELSIUS VRB - VARIABLE WIND DIRECTION N/A - NOT AVAILABLE

USA.gov is the U.S. government's official web portal to all federal, state and local government web resources and services.